STARLINK-34719, 64943

Orbit data source: Space-Track

STARLINK-34719, 64943 is a payload satellite owned by SpaceX/Seattle (US) in SSO that was launched on Sat, 26 Jul 2025 UTC via an FALCON 9 launch vehicle from the Air Force Western Test Range (AFWTR). Payload-class satellites include a variety of spacecraft equipped with specific instruments for various scientific and technological missions. These include communications satellites like Starlink; space stations such as the ISS; scientific satellites like the Hubble; Earth observation satellites from companies like Planet Labs, Umbra, and HawkEye 360; GPS; miniature CubeSats for education and research; and military/defense satellites.

Loading next visibility...
Identifier
64943, 2025-158M
Orbit
SSO
Country
Flag of USUS
Related business
Manufacturer
SpaceX/Seattle
Mission
Operational Commercial Communications
Bus & Motor
STARLINK V2MO, Unknown motor
Mass
575 kg wet, ~530 kg dry
Launch date (UTC)
2025-07-26 (11 months ago)
Launch vehicle
FALCON 9
Launch site
Air Force Western Test Range (AFWTR)
Object type
Payload
Rocket body
Debris
Shape & HBR
Box + 2 Pan, 17.7 m
Radar Cross Section
36.964 m², Large (>1 m²)

Expand to show TLE details & history
Last TLE update: 12 hours ago

TLE from 12 hours ago
0 STARLINK-34719
1 64943U 25158M   26171.34088132  .00003051  00000-0  21521-3 0  9996
2 64943  97.3382  34.1982 0002516  91.6354 268.5162 15.05666090 50800
Epoch: 2026-06-20T08:10Z
TLE epoch observation values (Epoch: 2026-06-20T08:10:52.146Z)
Latitude
0.00003°
Longitude
2.92402°
Altitude
552.58 km
Speed
7.585 km/s
True Right ascension
02h 16m 47s
True Declination
0° 00' 00"
Sunlit
Object was in daylight at epoch
Visualization orbit readout
Latitude
Unknown
Longitude
Unknown
Altitude
Unknown
Speed
Unknown
Apparent Right ascension
Unknown
Apparent Declination
Unknown
Sunlit
N/A
Visualization observer readout
Local Sidereal Time
07:14:48
Azimuth
Unknown
Elevation
Unknown
Doppler factor
Unknown
Orbital elements
Apogee altitude
548.186 km
Perigee altitude
544.702 km
Semi-major axis
6,924.581 km
Eccentricity
0.00025
Inclination
97.3382°
RAAN
34.1982°
Arg. of periapsis
91.6354°
True anomaly
268.48738°
Mean anomaly
268.5162°
Eccentric anomaly
268.50179°
Mean motion
3.76663 °/min
Orbital period
95.58 mins
BSTAR
0.00021521
Loading maneuver chart data...
Computing Atmospheric mass density...
Loading historical data...
Loading historical data...
Loading historical data...
Loading historical data...
Loading historical data...
Loading historical data...
Loading historical data...

Documentation

Showing up to 5 results
|